TimeCDT,TemperatureF,Dew PointF,Humidity,Sea Level PressureIn,VisibilityMPH,Wind Direction,Wind SpeedMPH,Gust SpeedMPH,PrecipitationIn,Events,Conditions,WindDirDegrees,DateUTC
12:58 AM,46.2,41.5,84,30.10,10.0,Calm,Calm,-,N/A,,Clear,360,2013-05-04 05:58:00
1:58 AM,45.1,40.6,84,30.08,10.0,Calm,Calm,-,N/A,,Clear,360,2013-05-04 06:58:00
2:58 AM,45.5,38.7,77,30.05,10.0,SW,3.5,-,N/A,,Clear,220,2013-05-04 07:58:00
3:58 AM,49.8,35.8,59,30.03,10.0,SW,4.6,-,N/A,,Clear,220,2013-05-04 08:58:00
4:25 AM,51.8,35.6,54,30.03,7.0,SSW,3.5,-,N/A,,Clear,210,2013-05-04 09:25:00
4:34 AM,51.8,33.8,50,30.03,10.0,SW,3.5,-,N/A,,Clear,220,2013-05-04 09:34:00
4:58 AM,50.9,34.5,54,30.03,10.0,SW,5.8,-,N/A,,Clear,220,2013-05-04 09:58:00
5:58 AM,50.2,34.0,54,30.03,10.0,SW,6.9,-,N/A,,Clear,230,2013-05-04 10:58:00
6:58 AM,50.5,34.0,53,30.04,10.0,SW,5.8,-,N/A,,Clear,220,2013-05-04 11:58:00
7:58 AM,52.9,34.7,50,30.05,10.0,SW,5.8,-,N/A,,Clear,230,2013-05-04 12:58:00
8:58 AM,58.1,34.7,41,30.06,10.0,SW,9.2,-,N/A,,Clear,230,2013-05-04 13:58:00
9:58 AM,63.9,35.2,35,30.06,10.0,SW,13.8,-,N/A,,Clear,220,2013-05-04 14:58:00
10:58 AM,67.5,33.3,28,30.06,10.0,SW,11.5,18.4,N/A,,Clear,220,2013-05-04 15:58:00
11:58 AM,70.0,34.7,27,30.04,10.0,SW,9.2,-,N/A,,Clear,230,2013-05-04 16:58:00
12:58 PM,73.4,37.0,27,30.01,10.0,WSW,8.1,-,N/A,,Clear,250,2013-05-04 17:58:00
1:58 PM,75.7,38.3,26,29.97,10.0,SW,6.9,-,N/A,,Scattered Clouds,230,2013-05-04 18:58:00
2:58 PM,77.5,36.1,22,29.96,10.0,SSW,6.9,-,N/A,,Partly Cloudy,210,2013-05-04 19:58:00
3:58 PM,79.5,35.8,21,29.93,10.0,SSW,9.2,-,N/A,,Clear,200,2013-05-04 20:58:00
4:58 PM,79.9,35.2,20,29.90,10.0,South,6.9,-,N/A,,Clear,170,2013-05-04 21:58:00
5:58 PM,78.4,35.8,21,29.89,10.0,SSW,8.1,-,N/A,,Clear,200,2013-05-04 22:58:00
6:58 PM,77.5,36.3,23,29.88,10.0,South,9.2,-,N/A,,Clear,170,2013-05-04 23:58:00
7:58 PM,73.2,36.9,27,29.89,10.0,SSW,6.9,-,N/A,,Clear,200,2013-05-05 00:58:00
8:58 PM,69.4,38.3,32,29.91,10.0,South,4.6,-,N/A,,Clear,190,2013-05-05 01:58:00
9:58 PM,68.0,36.5,31,29.93,10.0,SSW,2.3,-,N/A,,Clear,210,2013-05-05 02:58:00
10:58 PM,59.0,44.2,58,29.96,10.0,Variable,2.3,-,N/A,,Clear,0,2013-05-05 03:58:00
11:58 PM,62.4,43.3,50,29.98,10.0,South,4.6,-,N/A,,Clear,180,2013-05-05 04:58:00